Location: Altenhof
(50.2418°N, 10.8789°E)
Time: 05:56:53
(UTC+00:00)

Cosmos 1241 Rocket - Pass Details

Date: 18 February 2020
Orbit: 942 x 1005 km, 65.8° (Epoch: 28 March)

Event Time Altitude Azimuth Distance (km) Brightness Sun altitude
Exits shadow 03:17:36 70° 357° (N) 1,003 4.5 -30.0°
Drops below altitude 10° 03:23:16 10° 37° (NE) 2,669 7.4 -29.2°
Sets 03:25:49 0° 39° (NE) 3,617 8.3 -28.8°
